Satellite-Ground Cal/Val Region Overpasses Predictions

Prediction of Satellite NPP Overpassing Cal/Val Region: PacNW

Region Location: (Latitude: 10.00, Longitude: 139.50) to (Latitude: 22.70, Longitude: 165.60).

Table of predicted overpasses for the next 14.0 days since TLE Epoch: 7/15/2014
Interval Starting Time Starting Location Ending Time Ending Location
1 07/15/2014 04:02:44 ( 10.03, 140.77) 07/15/2014 04:04:16 ( 15.43, 139.51)
2 07/15/2014 14:53:08 ( 22.68, 163.41) 07/15/2014 14:56:44 ( 10.01, 160.38)
3 07/16/2014 03:43:44 ( 10.00, 145.53) 07/16/2014 03:47:20 ( 22.68, 142.50)
4 07/16/2014 14:37:10 ( 11.97, 165.59) 07/16/2014 14:37:43 ( 10.03, 165.15)
5 07/16/2014 16:15:38 ( 22.65, 142.79) 07/16/2014 16:19:13 ( 10.03, 139.77)
6 07/17/2014 03:24:44 ( 10.04, 150.28) 07/17/2014 03:28:19 ( 22.66, 147.26)
7 07/17/2014 15:56:38 ( 22.67, 147.55) 07/17/2014 16:00:13 ( 10.05, 144.53)
8 07/18/2014 03:05:44 ( 10.02, 155.04) 07/18/2014 03:09:19 ( 22.64, 152.02)
9 07/18/2014 15:37:37 ( 22.69, 152.31) 07/18/2014 15:41:13 ( 10.01, 149.28)
10 07/19/2014 02:46:43 ( 10.00, 159.80) 07/19/2014 02:50:19 ( 22.68, 156.77)
11 07/19/2014 15:18:38 ( 22.65, 157.06) 07/19/2014 15:22:13 ( 10.03, 154.04)
12 07/20/2014 02:27:44 ( 10.04, 164.55) 07/20/2014 02:31:19 ( 22.66, 161.53)
13 07/20/2014 14:59:37 ( 22.67, 161.82) 07/20/2014 15:03:12 ( 10.05, 158.80)
14 07/21/2014 03:50:13 ( 10.02, 143.93) 07/21/2014 03:53:48 ( 22.64, 140.92)
15 07/21/2014 14:41:45 ( 18.70, 165.60) 07/21/2014 14:44:13 ( 10.01, 163.55)
16 07/21/2014 16:22:07 ( 22.69, 141.21) 07/21/2014 16:24:06 ( 15.71, 139.51)
17 07/22/2014 03:31:13 ( 10.00, 148.70) 07/22/2014 03:34:49 ( 22.68, 145.67)
18 07/22/2014 16:03:08 ( 22.65, 145.96) 07/22/2014 16:06:43 ( 10.03, 142.94)
19 07/23/2014 03:12:13 ( 10.05, 153.44) 07/23/2014 03:15:48 ( 22.67, 150.43)
20 07/23/2014 15:44:07 ( 22.67, 150.72) 07/23/2014 15:47:42 ( 10.05, 147.70)
21 07/24/2014 02:53:13 ( 10.03, 158.21) 07/24/2014 02:56:48 ( 22.65, 155.19)
22 07/24/2014 15:25:07 ( 22.68, 155.48) 07/24/2014 15:28:43 ( 10.01, 152.45)
23 07/25/2014 02:34:12 ( 10.01, 162.97) 07/25/2014 02:37:48 ( 22.69, 159.94)
24 07/25/2014 15:06:07 ( 22.64, 160.23) 07/25/2014 15:09:42 ( 10.03, 157.21)
25 07/26/2014 02:17:46 ( 19.04, 165.60) 07/26/2014 02:18:48 ( 22.67, 164.70)
26 07/26/2014 03:56:43 ( 10.05, 142.34) 07/26/2014 04:00:05 ( 21.91, 139.51)
27 07/26/2014 14:47:07 ( 22.66, 164.99) 07/26/2014 14:50:42 ( 10.04, 161.97)
28 07/26/2014 16:28:37 ( 22.66, 139.61) 07/26/2014 16:28:44 ( 22.25, 139.51)
29 07/27/2014 03:37:42 ( 10.04, 147.10) 07/27/2014 03:41:17 ( 22.66, 144.08)
30 07/27/2014 16:09:36 ( 22.68, 144.37) 07/27/2014 16:13:12 ( 10.00, 141.34)
31 07/28/2014 03:18:42 ( 10.02, 151.86) 07/28/2014 03:22:17 ( 22.64, 148.84)


NCC Satellite Cal/Val Overpasses Prediction Service
